DW8344 Weather Reports


time (UTC)temp
F
wind
direction
speed
knots
gust
knots
rain 1hr
in
rain 24hr
in
rain mn
in
humidity
%
barometer
mb
20260503014003 61 167 0.9 1.7 0.00 0.00 0.00 42 1008.4
20260503013503 62 193 0.9 2.6 0.00 0.00 0.00 41 1008.4
20260503013004 62 209 1.7 5.2 0.00 0.00 0.00 40 1008.3
20260503012716 62 212 1.7 5.2 0.00 0.00 0.00 40 1008.4
20260503012003 63 229 2.6 8.7 0.00 0.00 0.00 39 1008.3
20260503011504 63 228 2.6 8.7 0.00 0.00 0.00 39 1008.4
20260503011004 62 233 2.6 8.7 0.00 0.00 0.00 40 1008.4
20260503010504 62 244 2.6 8.7 0.00 0.00 0.00 40 1008.5
20260503010003 62 233 1.7 7.0 0.00 0.00 0.00 40 1008.5
20260503005503 62 208 0.9 2.6 0.00 0.00 0.00 41 1008.4
20260503005004 62 217 0.9 2.6 0.00 0.00 0.00 41 1008.5
20260503004504 62 240 1.7 5.2 0.00 0.00 0.00 40 1008.6
20260503004003 63 270 1.7 5.2 0.00 0.00 0.00 39 1008.6
20260503003504 63 287 1.7 7.0 0.00 0.00 0.00 40 1008.7
20260503003004 63 255 2.6 7.8 0.00 0.00 0.00 39 1008.8
20260503002503 63 228 2.6 10.4 0.00 0.00 0.00 39 1008.9
20260503002003 63 224 1.7 10.4 0.00 0.00 0.00 39 1009.0
20260503001504 63 220 0.9 3.5 0.00 0.00 0.00 40 1009.0
20260503001004 63 222 1.7 3.5 0.00 0.00 0.00 39 1008.9
20260503000503 63 218 0.9 3.5 0.00 0.00 0.00 39 1008.9
20260503000218 63 209 0.9 3.5 0.00 0.00 0.00 39 1009.0
20260502235503 63 214 0.9 3.5 0.00 0.00 0.00 38 1009.0
20260502235003 63 218 1.7 4.3 0.00 0.00 0.00 38 1009.1
20260502234503 63 222 2.6 5.2 0.00 0.00 0.00 39 1009.1
20260502234004 63 229 1.7 7.8 0.00 0.00 0.00 38 1009.2
20260502233504 63 231 1.7 8.7 0.00 0.00 0.00 38 1009.2
20260502233214 63 228 1.7 8.7 0.00 0.00 0.00 38 1009.3
20260502232504 63 218 2.6 8.7 0.00 0.00 0.00 37 1009.3
20260502232215 63 216 3.5 8.7 0.00 0.00 0.00 37 1009.4
20260502231503 63 217 3.5 11.3 0.00 0.00 0.00 38 1009.5
20260502231003 63 221 2.6 5.2 0.00 0.00 0.00 39 1009.5
20260502230504 63 215 2.6 4.3 0.00 0.00 0.00 39 1009.6
20260502230004 63 203 2.6 5.2 0.00 0.00 0.00 38 1009.5
20260502225715 64 201 2.6 6.1 0.00 0.00 0.00 39 1009.5
20260502225003 64 197 2.6 6.1 0.00 0.00 0.00 37 1009.6
20260502224504 64 196 2.6 7.0 0.00 0.00 0.00 38 1009.6
20260502224003 64 204 2.6 7.0 0.00 0.00 0.00 37 1009.7
20260502223503 63 195 2.6 5.2 0.00 0.00 0.00 39 1009.8
20260502223004 63 191 2.6 5.2 0.00 0.00 0.00 37 1009.8
20260502222718 63 202 2.6 6.1 0.00 0.00 0.00 36 1009.9
20260502222004 64 204 2.6 8.7 0.00 0.00 0.00 36 1009.8
20260502221503 64 204 2.6 7.8 0.00 0.00 0.00 36 1009.9
20260502221003 64 213 3.5 8.7 0.00 0.00 0.00 36 1009.9
20260502220503 63 212 3.5 8.7 0.00 0.00 0.00 36 1010.0
20260502220218 63 215 2.6 8.7 0.00 0.00 0.00 36 1010.0
20260502215715 63 207 3.5 7.8 0.00 0.00 0.00 37 1010.1
20260502215003 63 206 5.2 9.6 0.00 0.00 0.00 35 1010.2
20260502214717 63 208 5.2 9.6 0.00 0.00 0.00 36 1010.2
20260502214004 63 216 4.3 7.8 0.00 0.00 0.00 36 1010.3
20260502213503 63 208 4.3 9.6 0.00 0.00 0.00 35 1010.4
20260502213003 64 194 4.3 9.6 0.00 0.00 0.00 37 1010.6
20260502212713 64 195 4.3 9.6 0.00 0.00 0.00 34 1010.6
20260502212216 64 201 5.2 11.3 0.00 0.00 0.00 34 1010.7
20260502211714 64 202 6.1 11.3 0.00 0.00 0.00 34 1010.8
20260502211003 64 212 5.2 12.2 0.00 0.00 0.00 35 1010.8
20260502210503 65 211 3.5 7.8 0.00 0.00 0.00 34 1011.0
20260502210004 64 234 3.5 9.6 0.00 0.00 0.00 34 1011.0
20260502205503 64 235 4.3 9.6 0.00 0.00 0.00 34 1011.1
20260502205004 64 221 5.2 11.3 0.00 0.00 0.00 34 1011.3
20260502204503 63 221 5.2 11.3 0.00 0.00 0.00 34 1011.3
20260502204004 63 227 4.3 11.3 0.00 0.00 0.00 32 1011.6
20260502203503 63 234 2.6 7.8 0.00 0.00 0.00 34 1011.6
20260502203004 64 237 3.5 9.6 0.00 0.00 0.00 34 1011.8
20260502202504 63 220 5.2 11.3 0.00 0.00 0.00 34 1011.9
20260502202003 63 216 6.1 11.3 0.00 0.00 0.00 33 1012.0
20260502201503 63 227 4.3 10.4 0.00 0.00 0.00 34 1012.1
20260502201003 64 206 5.2 14.8 0.00 0.00 0.00 34 1012.2
20260502200503 63 183 5.2 14.8 0.00 0.00 0.00 35 1012.1
20260502200004 63 198 3.5 8.7 0.00 0.00 0.00 33 1012.3
20260502195504 63 220 4.3 10.4 0.00 0.00 0.00 33 1012.3
20260502195003 62 217 6.1 12.2 0.00 0.00 0.00 39 1012.4
20260502194718 62 218 6.1 12.2 0.00 0.00 0.00 37 1012.4
20260502194003 62 217 5.2 11.3 0.00 0.00 0.00 34 1012.6
20260502193503 62 224 4.3 9.6 0.00 0.00 0.00 34 1012.6
20260502193004 62 223 5.2 10.4 0.00 0.00 0.00 35 1012.7
20260502192504 61 226 6.1 11.3 0.00 0.00 0.00 33 1012.9
20260502192004 61 230 4.3 11.3 0.00 0.00 0.00 35 1013.1
20260502191715 61 236 4.3 11.3 0.00 0.00 0.00 35 1013.0
20260502191004 60 223 5.2 11.3 0.00 0.00 0.00 34 1013.3
20260502190503 61 238 4.3 8.7 0.00 0.00 0.00 35 1013.2
20260502190004 60 244 4.3 8.7 0.00 0.00 0.00 35 1013.4
20260502185504 61 243 3.5 8.7 0.00 0.00 0.00 36 1013.5
20260502185003 61 219 3.5 9.6 0.00 0.00 0.00 38 1013.5
20260502184503 60 216 6.1 11.3 0.00 0.00 0.00 35 1013.5
20260502184216 60 219 6.1 11.3 0.00 0.00 0.00 34 1013.6
20260502183503 60 217 4.3 7.8 0.00 0.00 0.00 36 1013.7
20260502183003 60 223 5.2 11.3 0.00 0.00 0.00 37 1013.7
20260502182503 59 225 5.2 11.3 0.00 0.00 0.00 35 1013.9
20260502182004 59 225 4.3 10.4 0.00 0.00 0.00 34 1014.0
20260502181503 60 212 5.2 11.3 0.00 0.00 0.00 38 1014.0
20260502181004 60 202 6.1 11.3 0.00 0.00 0.00 36 1014.2
20260502180504 60 216 4.3 10.4 0.00 0.00 0.00 35 1014.1
20260502170504 57 210 5.2 11.3 0.00 0.00 0.00 35 1015.1
20260502170215 57 206 5.2 10.4 0.00 0.00 0.00 36 1015.2
20260502164004 57 250 2.6 8.7 0.00 0.00 0.00 36 1015.5
20260502163715 57 247 2.6 8.7 0.00 0.00 0.00 35 1015.5
20260502163219 58 248 2.6 7.8 0.00 0.00 0.00 37 1015.5
20260502162716 58 253 2.6 7.0 0.00 0.00 0.00 35 1015.7
20260502162004 57 249 2.6 7.0 0.00 0.00 0.00 37 1015.7
20260502161503 56 233 3.5 11.3 0.00 0.00 0.00 36 1015.7
20260502161004 56 233 4.3 11.3 0.00 0.00 0.00 39 1015.8
20260502160504 56 267 3.5 8.7 0.00 0.00 0.00 39 1015.9
20260502152004 55 232 3.5 10.4 0.00 0.00 0.00 41 1016.3
20260502151503 54 241 3.5 7.8 0.00 0.00 0.00 42 1016.4
20260502151004 54 243 3.5 11.3 0.00 0.00 0.00 42 1016.4
20260502150714 54 244 3.5 11.3 0.00 0.00 0.00 42 1016.4
20260502130504 44 242 1.7 4.3 0.00 0.00 0.00 66 1017.0
20260502123503 42 228 1.7 3.5 0.00 0.00 0.00 68 1016.9
20260502123003 41 220 0.9 3.5 0.00 0.00 0.00 70 1016.8
20260502122504 41 222 0.9 2.6 0.00 0.00 0.00 69 1016.8
20260502122003 41 219 0.9 1.7 0.00 0.00 0.00 69 1016.8
20260502121504 40 216 0.9 1.7 0.00 0.00 0.00 69 1016.9
20260502121004 40 224 0.0 1.7 0.00 0.00 0.00 72 1016.9
20260502120504 39 224 0.0 0.9 0.00 0.00 0.00 72 1016.9
20260502115717 38 0 0.0 0.0 0.00 0.00 0.00 73 1016.9
20260502115004 37 0 0.0 0.0 0.00 0.00 0.00 76 1016.8
20260502114504 36 0 0.0 0.0 0.00 0.00 0.00 76 1016.7
20260502114004 35 0 0.0 0.0 0.00 0.00 0.00 78 1016.7
20260502113503 34 0 0.0 0.0 0.00 0.00 0.00 79 1016.7
20260502113216 33 0 0.0 0.0 0.00 0.00 0.00 80 1016.7
20260502112503 32 0 0.0 0.0 0.00 0.00 0.00 82 1016.6
20260502112003 31 0 0.0 0.0 0.00 0.00 0.00 82 1016.7
20260502111504 31 0 0.0 0.0 0.00 0.00 0.00 82 1016.6
20260502111004 31 0 0.0 0.0 0.00 0.00 0.00 81 1016.7
20260502110716 31 0 0.0 0.0 0.00 0.00 0.00 80 1016.7
20260502110004 32 0 0.0 0.0 0.00 0.00 0.00 78 1016.7
20260502105717 33 0 0.0 0.0 0.00 0.00 0.00 78 1016.7
20260502105003 33 210 0.0 0.9 0.00 0.00 0.00 77 1016.7
20260502104503 34 210 0.0 0.9 0.00 0.00 0.00 76 1016.7
20260502104004 34 0 0.0 0.0 0.00 0.00 0.00 77 1016.7
20260502103504 34 0 0.0 0.0 0.00 0.00 0.00 77 1016.7
20260502103217 33 0 0.0 0.0 0.00 0.00 0.00 78 1016.7
20260502102715 33 134 0.0 0.9 0.00 0.00 0.00 77 1016.7
20260502102004 34 168 0.0 0.9 0.00 0.00 0.00 76 1016.7
20260502101503 35 231 0.0 0.9 0.00 0.00 0.00 75 1016.6
20260502101003 35 225 0.0 1.7 0.00 0.00 0.00 76 1016.6
20260502100717 35 228 0.0 1.7 0.00 0.00 0.00 76 1016.6
20260502091503 35 243 0.0 0.9 0.00 0.00 0.00 76 1016.5
20260502091004 35 240 0.0 0.9 0.00 0.00 0.00 76 1016.5
20260502090504 35 243 0.0 0.9 0.00 0.00 0.00 76 1016.6
20260502090215 35 243 0.0 0.9 0.00 0.00 0.00 76 1016.5
20260502071503 30 0 0.0 0.0 0.00 0.00 0.00 83 1016.8
20260502071003 30 0 0.0 0.0 0.00 0.00 0.00 83 1016.8
20260502070504 30 0 0.0 0.0 0.00 0.00 0.00 82 1016.8
20260502070004 31 0 0.0 0.0 0.00 0.00 0.00 81 1016.8
20260502065715 31 0 0.0 0.0 0.00 0.00 0.00 81 1016.9
20260502065218 31 0 0.0 0.0 0.00 0.00 0.00 81 1016.9
20260502064504 31 0 0.0 0.0 0.00 0.00 0.00 82 1016.9
20260502064003 31 0 0.0 0.0 0.00 0.00 0.00 81 1016.9
20260502063503 31 0 0.0 0.0 0.00 0.00 0.00 80 1016.9
20260502063003 32 0 0.0 0.0 0.00 0.00 0.00 79 1016.9
20260502062504 32 0 0.0 0.0 0.00 0.00 0.00 79 1016.9
20260502062004 32 0 0.0 0.0 0.00 0.00 0.00 80 1016.9
20260502061503 32 0 0.0 0.0 0.00 0.00 0.00 80 1016.9
20260502061003 32 0 0.0 0.0 0.00 0.00 0.00 80 1016.9
20260502060503 32 0 0.0 0.0 0.00 0.00 0.00 78 1016.9
20260502060003 32 0 0.0 0.0 0.00 0.00 0.00 77 1017.0
20260502055503 33 0 0.0 0.0 0.00 0.00 0.00 76 1017.0
20260502055003 33 0 0.0 0.0 0.00 0.00 0.00 75 1017.0
20260502054716 34 0 0.0 0.0 0.00 0.00 0.00 75 1017.0
20260502054004 34 0 0.0 0.0 0.00 0.00 0.00 74 1017.0
20260502053717 34 0 0.0 0.0 0.00 0.00 0.00 75 1017.0
20260502053215 33 0 0.0 0.0 0.00 0.00 0.00 76 1017.0
20260502052713 34 0 0.0 0.0 0.00 0.00 0.00 74 1017.0
20260502052004 34 0 0.0 0.0 0.00 0.00 0.00 72 1017.0
20260502051504 35 0 0.0 0.0 0.00 0.00 0.00 71 1017.0
20260502051004 36 0 0.0 0.0 0.00 0.00 0.00 70 1016.9
20260502050505 36 0 0.0 0.0 0.00 0.00 0.00 68 1017.0
20260502050007 37 240 0.0 0.9 0.00 0.00 0.00 67 1016.9
20260502045504 37 240 0.0 0.9 0.00 0.00 0.00 66 1016.9
20260502045214 37 240 0.0 0.9 0.00 0.00 0.00 68 1016.8
20260502044503 37 240 0.0 0.9 0.00 0.00 0.00 68 1016.8
20260502044215 37 240 0.0 0.9 0.00 0.00 0.00 67 1016.8
20260502043504 39 240 0.0 0.9 0.00 0.00 0.00 64 1016.9
20260502043004 40 240 0.0 0.9 0.00 0.00 0.00 60 1016.9
20260502042503 41 240 0.0 0.9 0.00 0.00 0.00 58 1016.9
20260502042003 41 240 0.0 0.9 0.00 0.00 0.00 56 1016.9
20260502041503 42 240 0.0 0.9 0.00 0.00 0.00 55 1016.9
20260502041212 42 239 0.0 0.9 0.00 0.00 0.00 55 1016.9
20260502040504 42 236 0.0 0.9 0.00 0.00 0.00 55 1016.9
20260502040004 42 238 0.0 0.9 0.00 0.00 0.00 54 1016.9
20260502035504 42 231 0.0 0.9 0.00 0.00 0.00 53 1016.9
20260502035004 42 226 0.0 0.9 0.00 0.00 0.00 53 1016.9
20260502034503 43 223 0.0 0.9 0.00 0.00 0.00 51 1017.0
20260502034003 43 193 0.0 0.9 0.00 0.00 0.00 51 1016.9
20260502033504 43 206 0.0 0.9 0.00 0.00 0.00 51 1017.0
20260502033004 44 214 0.0 0.9 0.00 0.00 0.00 49 1017.0
20260502032505 45 217 0.0 0.9 0.00 0.00 0.00 50 1017.0
20260502032004 45 211 0.0 0.9 0.00 0.00 0.00 48 1016.9
20260502031503 46 208 0.0 0.9 0.00 0.00 0.00 47 1016.9
20260502031213 46 211 0.0 0.9 0.00 0.00 0.00 47 1016.9
20260502030503 46 232 0.0 1.7 0.00 0.00 0.00 47 1016.9
20260502030003 46 235 0.9 1.7 0.00 0.00 0.00 45 1016.9
20260502025504 46 228 0.9 1.7 0.00 0.00 0.00 47 1017.0
20260502025004 46 224 0.9 1.7 0.00 0.00 0.00 47 1016.9
20260502024503 46 221 0.9 2.6 0.00 0.00 0.00 47 1016.9
20260502024004 46 221 0.9 2.6 0.00 0.00 0.00 46 1016.9
20260502023714 45 220 0.9 2.6 0.00 0.00 0.00 47 1016.9
20260502023004 44 215 0.0 0.9 0.00 0.00 0.00 50 1016.8
20260502022503 44 218 0.0 0.9 0.00 0.00 0.00 52 1016.9
20260502022003 44 244 0.0 0.9 0.00 0.00 0.00 51 1016.8
20260502021716 44 245 0.0 0.9 0.00 0.00 0.00 52 1016.8
20260502021003 44 245 0.0 0.9 0.00 0.00 0.00 54 1016.7
20260502020504 44 245 0.0 0.9 0.00 0.00 0.00 53 1016.7
20260502020215 44 245 0.0 0.9 0.00 0.00 0.00 52 1016.7
20260502015503 44 245 0.0 0.9 0.00 0.00 0.00 52 1016.6
20260502015216 44 245 0.0 0.9 0.00 0.00 0.00 52 1016.6
20260502014503 44 0 0.0 0.0 0.00 0.00 0.00 51 1016.5
20260502014217 45 245 0.0 0.9 0.00 0.00 0.00 51 1016.5